Weather History for Mosby, MO

Change the Weather History Date:

Tuesday, December 11, 2012

  Actual Average (KMKC) Record (KMKC)
Temperature  
Mean Temperature 29 °F -  
Max Temperature 44 °F 42 °F 60 °F (2006)
Min Temperature 14 °F 27 °F 1 °F (2000)
Degree Days  
Heating Degree Days 36    
Moisture  
Dew Point 17 °F    
Average Humidity 67    
Maximum Humidity 93    
Minimum Humidity 34    
Precipitation  
Precipitation 0.00 in - - ()
Sea Level Pressure  
Sea Level Pressure 30.07 in    
Wind  
Wind Speed 2 mph (WSW)    
Max Wind Speed 9 mph    
Max Gust Speed -    
Visibility 10 miles    
Events      
Averages and records for this station are not official NWS values.
T = Trace of Precipitation, MM = Missing Value Source: NWS Daily Summary

Daily Weather History Graph

Daily Weather History Graph

Search for Another Location

Airport:

Trip Planner

Search our weather history database for the weather conditions in past years. The results will help you decide how hot, cold, wet, or windy it might be!

Date:

Astronomy

Dec. 11, 2012 Rise Set
Actual Time 7:27 AM CST 4:54 PM CST
Civil Twilight 6:57 AM CST 5:24 PM CST
Nautical Twilight 6:23 AM CST 5:57 PM CST
Astronomical Twilight 5:51 AM CST 6:30 PM CST
Moon 5:23 AM CST (12/11) 3:33 PM CST (12/11)
Length of Visible Light 10h 26m
Length of Day
9h 26m
Waning Crescent, 4% of the Moon is Illuminated
Dec 11
Waning Crescent
Dec 13
New
Dec 19
First Quarter
Dec 28
Full
Jan 4
Last Quarter

Hourly Weather History & Observations

Time (CST) Temp. Windchill Dew Point Humidity Pressure Visibility Wind Dir Wind Speed Gust Speed Precip Events Conditions
12:15 AM 17.6 °F 12.3 °F 14.0 °F 86% 30.02 in 10.0 mi ESE 3.5 mph - N/A   Clear
12:35 AM 17.6 °F - 12.2 °F 79% 30.01 in 10.0 mi Calm Calm - N/A   Clear
12:55 AM 17.6 °F - 14.0 °F 86% 30.00 in 10.0 mi Calm Calm - N/A   Clear
1:15 AM 17.6 °F 12.3 °F 14.0 °F 86% 30.00 in 10.0 mi SE 3.5 mph - N/A   Clear
1:35 AM 17.6 °F - 14.0 °F 86% 30.00 in 10.0 mi Calm Calm - N/A   Clear
1:55 AM 17.6 °F - 14.0 °F 86% 30.01 in 10.0 mi Calm Calm - N/A   Clear
2:15 AM 19.4 °F - 14.0 °F 80% 30.00 in 10.0 mi Calm Calm - N/A   Clear
2:35 AM 17.6 °F 12.3 °F 14.0 °F 86% 30.02 in 10.0 mi SSE 3.5 mph - N/A   Clear
2:55 AM 19.4 °F - 12.2 °F 74% 30.02 in 10.0 mi Calm Calm - N/A   Clear
3:15 AM 17.6 °F - 14.0 °F 86% 30.02 in 10.0 mi Calm Calm - N/A   Clear
3:35 AM 17.6 °F - 14.0 °F 86% 30.02 in 10.0 mi Calm Calm - N/A   Clear
3:55 AM 17.6 °F - 14.0 °F 86% 30.02 in 10.0 mi Calm Calm - N/A   Clear
4:15 AM 17.6 °F - 12.2 °F 79% 30.01 in 10.0 mi Calm Calm - N/A   Clear
4:35 AM 17.6 °F - 12.2 °F 79% 30.02 in 10.0 mi Calm Calm - N/A   Clear
4:55 AM 15.8 °F - 12.2 °F 86% 30.02 in 10.0 mi Calm Calm - N/A   Clear
5:15 AM 15.8 °F - 12.2 °F 86% 30.02 in 10.0 mi Calm Calm - N/A   Clear
5:35 AM 15.8 °F - 12.2 °F 86% 30.02 in 10.0 mi Calm Calm - N/A   Clear
5:55 AM 17.6 °F - 12.2 °F 79% 30.02 in 10.0 mi Calm Calm - N/A   Clear
6:15 AM 15.8 °F - 12.2 °F 86% 30.03 in 10.0 mi Calm Calm - N/A   Clear
6:35 AM 15.8 °F - 12.2 °F 86% 30.04 in 10.0 mi Calm Calm - N/A   Clear
6:55 AM 14.0 °F - 12.2 °F 93% 30.05 in 10.0 mi Calm Calm - N/A   Scattered Clouds
7:15 AM 14.0 °F - 12.2 °F 93% 30.05 in 10.0 mi Calm Calm - N/A   Scattered Clouds
7:35 AM 15.8 °F - 12.2 °F 86% 30.05 in 10.0 mi Calm Calm - N/A   Clear
8:15 AM 15.8 °F - 12.2 °F 86% 30.06 in 10.0 mi Calm Calm - N/A   Unknown
8:35 AM 19.4 °F - 14.0 °F 80% 30.07 in 10.0 mi Calm Calm - N/A   Clear
8:55 AM 21.2 °F - 17.6 °F 86% 30.08 in 10.0 mi Calm Calm - N/A   Clear
9:15 AM 24.8 °F - 17.6 °F 74% 30.08 in 10.0 mi Calm Calm - N/A   Clear
9:35 AM 28.4 °F - 17.6 °F 64% 30.08 in 10.0 mi Calm Calm - N/A   Clear
9:55 AM 30.2 °F 25.4 °F 19.4 °F 64% 30.09 in 10.0 mi West 4.6 mph - N/A   Clear
10:15 AM 32.0 °F 27.5 °F 19.4 °F 60% 30.10 in 10.0 mi WNW 4.6 mph - N/A   Clear
10:35 AM 33.8 °F 29.6 °F 19.4 °F 56% 30.10 in 10.0 mi West 4.6 mph - N/A   Clear
10:55 AM 33.8 °F 29.6 °F 19.4 °F 56% 30.10 in 10.0 mi West 4.6 mph - N/A   Clear
11:15 AM 35.6 °F 32.8 °F 21.2 °F 56% 30.10 in 10.0 mi West 3.5 mph - N/A   Clear
11:35 AM 37.4 °F 34.9 °F 21.2 °F 52% 30.09 in 10.0 mi WSW 3.5 mph - N/A   Clear
11:55 AM 39.2 °F 35.9 °F 21.2 °F 49% 30.08 in 10.0 mi WSW 4.6 mph - N/A   Clear
12:15 PM 39.2 °F 33.0 °F 21.2 °F 49% 30.08 in 10.0 mi West 9.2 mph - N/A   Clear
12:35 PM 41.0 °F 35.8 °F 19.4 °F 42% 30.07 in 10.0 mi West 8.1 mph - N/A   Clear
12:55 PM 41.0 °F 36.4 °F 19.4 °F 42% 30.07 in 10.0 mi West 6.9 mph - N/A   Clear
1:15 PM 41.0 °F 39.0 °F 19.4 °F 42% 30.07 in 10.0 mi West 3.5 mph - N/A   Clear
1:35 PM 41.0 °F 35.8 °F 19.4 °F 42% 30.06 in 10.0 mi West 8.1 mph - N/A   Clear
1:55 PM 42.8 °F 40.1 °F 19.4 °F 39% 30.06 in 10.0 mi WNW 4.6 mph - N/A   Clear
2:15 PM 42.8 °F 40.1 °F 19.4 °F 39% 30.05 in 10.0 mi WSW 4.6 mph - N/A   Clear
2:35 PM 42.8 °F 38.0 °F 17.6 °F 36% 30.05 in 10.0 mi West 8.1 mph - N/A   Clear
2:55 PM 42.8 °F 41.1 °F 17.6 °F 36% 30.05 in 10.0 mi WNW 3.5 mph - N/A   Clear
3:15 PM 42.8 °F 40.1 °F 17.6 °F 36% 30.05 in 10.0 mi SW 4.6 mph - N/A   Clear
3:35 PM 44.6 °F 43.1 °F 17.6 °F 34% 30.05 in 10.0 mi WSW 3.5 mph - N/A   Clear
3:55 PM 44.6 °F 40.7 °F 17.6 °F 34% 30.05 in 10.0 mi South 6.9 mph - N/A   Clear
4:15 PM 42.8 °F 41.1 °F 19.4 °F 39% 30.05 in 10.0 mi SSW 3.5 mph - N/A   Clear
4:35 PM 42.8 °F - 19.4 °F 39% 30.06 in 10.0 mi Calm Calm - N/A   Clear
4:55 PM 41.0 °F - 19.4 °F 42% 30.07 in 10.0 mi Calm Calm - N/A   Clear
5:15 PM 39.2 °F 35.9 °F 19.4 °F 45% 30.07 in 10.0 mi South 4.6 mph - N/A   Clear
5:35 PM 37.4 °F 34.9 °F 19.4 °F 48% 30.07 in 10.0 mi South 3.5 mph - N/A   Clear
5:55 PM 32.0 °F - 19.4 °F 60% 30.07 in 10.0 mi Calm Calm - N/A   Clear
6:15 PM 32.0 °F - 21.2 °F 64% 30.08 in 10.0 mi Calm Calm - N/A   Clear
6:35 PM 30.2 °F - 19.4 °F 64% 30.08 in 10.0 mi Calm Calm - N/A   Clear
6:55 PM 30.2 °F - 21.2 °F 69% 30.09 in 10.0 mi Calm Calm - N/A   Clear
7:15 PM 28.4 °F - 21.2 °F 74% 30.09 in 10.0 mi Calm Calm - N/A   Clear
7:35 PM 28.4 °F - 21.2 °F 74% 30.10 in 10.0 mi Calm Calm - N/A   Clear
7:55 PM 28.4 °F - 19.4 °F 69% 30.10 in 10.0 mi Calm Calm - N/A   Clear
8:15 PM 26.6 °F - 19.4 °F 74% 30.10 in 10.0 mi Calm Calm - N/A   Clear
8:35 PM 30.2 °F 26.7 °F 21.2 °F 69% 30.11 in 10.0 mi SSE 3.5 mph - N/A   Clear
8:55 PM 28.4 °F - 21.2 °F 74% 30.12 in 10.0 mi Calm Calm - N/A   Clear
9:15 PM 28.4 °F - 21.2 °F 74% 30.12 in 10.0 mi Calm Calm - N/A   Clear
9:35 PM 26.6 °F - 19.4 °F 74% 30.13 in 10.0 mi Calm Calm - N/A   Clear
9:55 PM 26.6 °F - 19.4 °F 74% 30.13 in 10.0 mi Calm Calm - N/A   Clear
10:15 PM 30.2 °F 26.7 °F 19.4 °F 64% 30.13 in 10.0 mi SSE 3.5 mph - N/A   Clear
10:35 PM 30.2 °F - 21.2 °F 69% 30.13 in 10.0 mi Calm Calm - N/A   Clear
10:55 PM 30.2 °F - 19.4 °F 64% 30.14 in 10.0 mi Calm Calm - N/A   Clear
11:15 PM 30.2 °F - 19.4 °F 64% 30.14 in 10.0 mi Calm Calm - N/A   Clear
11:35 PM 28.4 °F - 19.4 °F 69% 30.15 in 10.0 mi Calm Calm - N/A   Clear
11:55 PM 28.4 °F 24.6 °F 19.4 °F 69% 30.15 in 10.0 mi ESE 3.5 mph - N/A   Clear